owner,sensor,date,latitude,longitude,air_temperature,qcFlag 
DISL,ioos:station:DISL:BSCA:1,2012-02-01T00:00:00Z,30.3288,-87.8293,17.97,1111122 
DISL,ioos:station:DISL:BSCA:1,2012-02-01T00:30:00Z,30.3288,-87.8293,17.86,1111122 
DISL,ioos:station:DISL:BSCA:1,2012-02-01T01:00:00Z,30.3288,-87.8293,18.1,1111122 
DISL,ioos:station:DISL:BSCA:1,2012-02-01T01:30:00Z,30.3288,-87.8293,17.73,1111122 
DISL,ioos:station:DISL:BSCA:1,2012-02-01T02:00:00Z,30.3288,-87.8293,17.8,1111122 
DISL,ioos:station:DISL:BSCA:1,2012-02-01T02:30:00Z,30.3288,-87.8293,17.83,1111122 
DISL,ioos:station:DISL:BSCA:1,2012-02-01T03:00:00Z,30.3288,-87.8293,17.46,1111122 
DISL,ioos:station:DISL:BSCA:1,2012-02-01T03:30:00Z,30.3288,-87.8293,17.32,1111122 
DISL,ioos:station:DISL:BSCA:1,2012-02-01T04:00:00Z,30.3288,-87.8293,17.15,1111122 
DISL,ioos:station:DISL:BSCA:1,2012-02-01T04:30:00Z,30.3288,-87.8293,17.19,1111122 
DISL,ioos:station:DISL:BSCA:1,2012-02-01T05:00:00Z,30.3288,-87.8293,16.85,1111122 
DISL,ioos:station:DISL:BSCA:1,2012-02-01T05:30:00Z,30.3288,-87.8293,17.29,1111122 
DISL,ioos:station:DISL:BSCA:1,2012-02-01T06:00:00Z,30.3288,-87.8293,17.36,1111122 
DISL,ioos:station:DISL:BSCA:1,2012-02-01T06:30:00Z,30.3288,-87.8293,17.06,1111122 
DISL,ioos:station:DISL:BSCA:1,2012-02-01T07:00:00Z,30.3288,-87.8293,16.99,1111122 
DISL,ioos:station:DISL:BSCA:1,2012-02-01T07:30:00Z,30.3288,-87.8293,17.0,1111122 
DISL,ioos:station:DISL:BSCA:1,2012-02-01T08:00:00Z,30.3288,-87.8293,16.93,1111122 
DISL,ioos:station:DISL:BSCA:1,2012-02-01T08:30:00Z,30.3288,-87.8293,17.13,1111122 
DISL,ioos:station:DISL:BSCA:1,2012-02-01T09:00:00Z,30.3288,-87.8293,17.3,1111122 
DISL,ioos:station:DISL:BSCA:1,2012-02-01T09:30:00Z,30.3288,-87.8293,17.16,1111122 
DISL,ioos:station:DISL:BSCA:1,2012-02-01T10:00:00Z,30.3288,-87.8293,17.39,1111122 
DISL,ioos:station:DISL:BSCA:1,2012-02-01T10:30:00Z,30.3288,-87.8293,17.56,1111122 
DISL,ioos:station:DISL:BSCA:1,2012-02-01T11:00:00Z,30.3288,-87.8293,17.63,1111122 
DISL,ioos:station:DISL:BSCA:1,2012-02-01T11:30:00Z,30.3288,-87.8293,17.63,1111122 
DISL,ioos:station:DISL:BSCA:1,2012-02-01T12:00:00Z,30.3288,-87.8293,17.63,1111122 
DISL,ioos:station:DISL:BSCA:1,2012-02-01T12:30:00Z,30.3288,-87.8293,17.29,1111122 
DISL,ioos:station:DISL:BSCA:1,2012-02-01T13:00:00Z,30.3288,-87.8293,17.19,1111122 
DISL,ioos:station:DISL:BSCA:1,2012-02-01T13:30:00Z,30.3288,-87.8293,17.22,1111122 
DISL,ioos:station:DISL:BSCA:1,2012-02-01T14:00:00Z,30.3288,-87.8293,17.49,1111122 
DISL,ioos:station:DISL:BSCA:1,2012-02-01T14:30:00Z,30.3288,-87.8293,17.59,1111122 
DISL,ioos:station:DISL:BSCA:1,2012-02-01T15:00:00Z,30.3288,-87.8293,17.83,1111122 
DISL,ioos:station:DISL:BSCA:1,2012-02-01T15:30:00Z,30.3288,-87.8293,18.0,1111122 
DISL,ioos:station:DISL:BSCA:1,2012-02-01T16:00:00Z,30.3288,-87.8293,18.1,1111122 
DISL,ioos:station:DISL:BSCA:1,2012-02-01T16:30:00Z,30.3288,-87.8293,18.0,1111122 
DISL,ioos:station:DISL:BSCA:1,2012-02-01T17:00:00Z,30.3288,-87.8293,18.24,1111122 
DISL,ioos:station:DISL:BSCA:1,2012-02-01T17:30:00Z,30.3288,-87.8293,18.17,1111122 
DISL,ioos:station:DISL:BSCA:1,2012-02-01T18:00:00Z,30.3288,-87.8293,18.71,1111122 
DISL,ioos:station:DISL:BSCA:1,2012-02-01T18:30:00Z,30.3288,-87.8293,16.85,1111122 
DISL,ioos:station:DISL:BSCA:1,2012-02-01T19:00:00Z,30.3288,-87.8293,16.75,1111122 
DISL,ioos:station:DISL:BSCA:1,2012-02-01T19:30:00Z,30.3288,-87.8293,16.68,1111122 
DISL,ioos:station:DISL:BSCA:1,2012-02-01T20:00:00Z,30.3288,-87.8293,16.44,1111122 
DISL,ioos:station:DISL:BSCA:1,2012-02-01T20:30:00Z,30.3288,-87.8293,16.41,1111122 
DISL,ioos:station:DISL:BSCA:1,2012-02-01T21:00:00Z,30.3288,-87.8293,16.45,1111122 
DISL,ioos:station:DISL:BSCA:1,2012-02-01T21:30:00Z,30.3288,-87.8293,16.52,1111122 
DISL,ioos:station:DISL:BSCA:1,2012-02-01T22:00:00Z,30.3288,-87.8293,16.48,1111122 
DISL,ioos:station:DISL:BSCA:1,2012-02-01T22:30:00Z,30.3288,-87.8293,16.55,1111122 
DISL,ioos:station:DISL:BSCA:1,2012-02-01T23:00:00Z,30.3288,-87.8293,16.41,1111122 
DISL,ioos:station:DISL:BSCA:1,2012-02-01T23:30:00Z,30.3288,-87.8293,16.69,1111122 
DISL,ioos:station:DISL:BSCA:1,2012-02-02T00:00:00Z,30.3288,-87.8293,16.82,1111122 
DISL,ioos:station:DISL:BSCA:1,2012-02-02T00:30:00Z,30.3288,-87.8293,16.58,1111122 
DISL,ioos:station:DISL:BSCA:1,2012-02-02T01:00:00Z,30.3288,-87.8293,16.62,1111122 
DISL,ioos:station:DISL:BSCA:1,2012-02-02T01:30:00Z,30.3288,-87.8293,16.75,1111122 
DISL,ioos:station:DISL:BSCA:1,2012-02-02T02:00:00Z,30.3288,-87.8293,16.72,1111122 
DISL,ioos:station:DISL:BSCA:1,2012-02-02T02:30:00Z,30.3288,-87.8293,16.48,1111122 
DISL,ioos:station:DISL:BSCA:1,2012-02-02T03:00:00Z,30.3288,-87.8293,16.65,1111122 
DISL,ioos:station:DISL:BSCA:1,2012-02-02T03:30:00Z,30.3288,-87.8293,16.86,1111122 
DISL,ioos:station:DISL:BSCA:1,2012-02-02T04:00:00Z,30.3288,-87.8293,16.82,1111122 
DISL,ioos:station:DISL:BSCA:1,2012-02-02T04:30:00Z,30.3288,-87.8293,16.38,1111122 
DISL,ioos:station:DISL:BSCA:1,2012-02-02T05:00:00Z,30.3288,-87.8293,16.66,1111122 
DISL,ioos:station:DISL:BSCA:1,2012-02-02T05:30:00Z,30.3288,-87.8293,16.73,1111122 
DISL,ioos:station:DISL:BSCA:1,2012-02-02T06:00:00Z,30.3288,-87.8293,16.73,1111122 
DISL,ioos:station:DISL:BSCA:1,2012-02-02T06:30:00Z,30.3288,-87.8293,17.0,1111122 
DISL,ioos:station:DISL:BSCA:1,2012-02-02T07:00:00Z,30.3288,-87.8293,17.5,1111122 
DISL,ioos:station:DISL:BSCA:1,2012-02-02T07:30:00Z,30.3288,-87.8293,17.49,1111122 
DISL,ioos:station:DISL:BSCA:1,2012-02-02T08:00:00Z,30.3288,-87.8293,17.46,1111122 
DISL,ioos:station:DISL:BSCA:1,2012-02-02T08:30:00Z,30.3288,-87.8293,17.43,1111122 
DISL,ioos:station:DISL:BSCA:1,2012-02-02T09:00:00Z,30.3288,-87.8293,17.29,1111122 
DISL,ioos:station:DISL:BSCA:1,2012-02-02T09:30:00Z,30.3288,-87.8293,16.92,1111122 
DISL,ioos:station:DISL:BSCA:1,2012-02-02T10:00:00Z,30.3288,-87.8293,16.73,1111122 
DISL,ioos:station:DISL:BSCA:1,2012-02-02T10:30:00Z,30.3288,-87.8293,16.29,1111122 
DISL,ioos:station:DISL:BSCA:1,2012-02-02T11:00:00Z,30.3288,-87.8293,16.32,1111122 
DISL,ioos:station:DISL:BSCA:1,2012-02-02T11:30:00Z,30.3288,-87.8293,16.12,1111122 
DISL,ioos:station:DISL:BSCA:1,2012-02-02T12:00:00Z,30.3288,-87.8293,15.95,1111122 
DISL,ioos:station:DISL:BSCA:1,2012-02-02T12:30:00Z,30.3288,-87.8293,15.88,1111122 
DISL,ioos:station:DISL:BSCA:1,2012-02-02T13:00:00Z,30.3288,-87.8293,15.37,1111122 
DISL,ioos:station:DISL:BSCA:1,2012-02-02T13:30:00Z,30.3288,-87.8293,15.48,1111122 
DISL,ioos:station:DISL:BSCA:1,2012-02-02T14:00:00Z,30.3288,-87.8293,15.78,1111122 
DISL,ioos:station:DISL:BSCA:1,2012-02-02T14:30:00Z,30.3288,-87.8293,16.15,1111122 
DISL,ioos:station:DISL:BSCA:1,2012-02-02T15:00:00Z,30.3288,-87.8293,16.49,1111122 
DISL,ioos:station:DISL:BSCA:1,2012-02-02T15:30:00Z,30.3288,-87.8293,16.72,1111122 
DISL,ioos:station:DISL:BSCA:1,2012-02-02T16:00:00Z,30.3288,-87.8293,17.05,1111122 
DISL,ioos:station:DISL:BSCA:1,2012-02-02T16:30:00Z,30.3288,-87.8293,17.46,1111122 
DISL,ioos:station:DISL:BSCA:1,2012-02-02T17:00:00Z,30.3288,-87.8293,17.8,1111122 
DISL,ioos:station:DISL:BSCA:1,2012-02-02T17:30:00Z,30.3288,-87.8293,18.1,1111122 
DISL,ioos:station:DISL:BSCA:1,2012-02-02T18:00:00Z,30.3288,-87.8293,18.54,1111122 
DISL,ioos:station:DISL:BSCA:1,2012-02-02T18:30:00Z,30.3288,-87.8293,18.57,1111122 
DISL,ioos:station:DISL:BSCA:1,2012-02-02T19:00:00Z,30.3288,-87.8293,18.36,1111122 
DISL,ioos:station:DISL:BSCA:1,2012-02-02T19:30:00Z,30.3288,-87.8293,18.39,1111122 
DISL,ioos:station:DISL:BSCA:1,2012-02-02T20:00:00Z,30.3288,-87.8293,17.89,1111122 
DISL,ioos:station:DISL:BSCA:1,2012-02-02T20:30:00Z,30.3288,-87.8293,17.52,1111122 
DISL,ioos:station:DISL:BSCA:1,2012-02-02T21:00:00Z,30.3288,-87.8293,17.63,1111122 
DISL,ioos:station:DISL:BSCA:1,2012-02-02T21:30:00Z,30.3288,-87.8293,18.14,1111122 
DISL,ioos:station:DISL:BSCA:1,2012-02-02T22:00:00Z,30.3288,-87.8293,18.13,1111122 
DISL,ioos:station:DISL:BSCA:1,2012-02-02T22:30:00Z,30.3288,-87.8293,18.47,1111122 
DISL,ioos:station:DISL:BSCA:1,2012-02-02T23:00:00Z,30.3288,-87.8293,19.22,1111122 
DISL,ioos:station:DISL:BSCA:1,2012-02-02T23:30:00Z,30.3288,-87.8293,19.08,1111122 
DISL,ioos:station:DISL:BSCA:1,2012-02-03T00:00:00Z,30.3288,-87.8293,19.02,1111122 
DISL,ioos:station:DISL:BSCA:1,2012-02-03T00:30:00Z,30.3288,-87.8293,18.64,1111122 
DISL,ioos:station:DISL:BSCA:1,2012-02-03T01:00:00Z,30.3288,-87.8293,18.41,1111122 
DISL,ioos:station:DISL:BSCA:1,2012-02-03T01:30:00Z,30.3288,-87.8293,18.24,1111122 
DISL,ioos:station:DISL:BSCA:1,2012-02-03T02:00:00Z,30.3288,-87.8293,18.14,1111122 
DISL,ioos:station:DISL:BSCA:1,2012-02-03T02:30:00Z,30.3288,-87.8293,18.0,1111122 
DISL,ioos:station:DISL:BSCA:1,2012-02-03T03:00:00Z,30.3288,-87.8293,17.9,1111122 
DISL,ioos:station:DISL:BSCA:1,2012-02-03T03:30:00Z,30.3288,-87.8293,17.8,1111122 
DISL,ioos:station:DISL:BSCA:1,2012-02-03T04:00:00Z,30.3288,-87.8293,17.59,1111122 
DISL,ioos:station:DISL:BSCA:1,2012-02-03T04:30:00Z,30.3288,-87.8293,17.36,1111122 
DISL,ioos:station:DISL:BSCA:1,2012-02-03T05:00:00Z,30.3288,-87.8293,17.19,1111122 
DISL,ioos:station:DISL:BSCA:1,2012-02-03T05:30:00Z,30.3288,-87.8293,16.92,1111122 
DISL,ioos:station:DISL:BSCA:1,2012-02-03T06:00:00Z,30.3288,-87.8293,16.85,1111122 
DISL,ioos:station:DISL:BSCA:1,2012-02-03T06:30:00Z,30.3288,-87.8293,16.52,1111122 
DISL,ioos:station:DISL:BSCA:1,2012-02-03T07:00:00Z,30.3288,-87.8293,16.39,1111122 
DISL,ioos:station:DISL:BSCA:1,2012-02-03T07:30:00Z,30.3288,-87.8293,16.43,1111122 
DISL,ioos:station:DISL:BSCA:1,2012-02-03T08:00:00Z,30.3288,-87.8293,16.49,1111122 
DISL,ioos:station:DISL:BSCA:1,2012-02-03T08:30:00Z,30.3288,-87.8293,16.32,1111122 
DISL,ioos:station:DISL:BSCA:1,2012-02-03T09:00:00Z,30.3288,-87.8293,16.29,1111122 
DISL,ioos:station:DISL:BSCA:1,2012-02-03T09:30:00Z,30.3288,-87.8293,16.29,1111122 
DISL,ioos:station:DISL:BSCA:1,2012-02-03T10:00:00Z,30.3288,-87.8293,16.15,1111122 
DISL,ioos:station:DISL:BSCA:1,2012-02-03T10:30:00Z,30.3288,-87.8293,16.15,1111122 
DISL,ioos:station:DISL:BSCA:1,2012-02-03T11:00:00Z,30.3288,-87.8293,16.15,1111122 
DISL,ioos:station:DISL:BSCA:1,2012-02-03T11:30:00Z,30.3288,-87.8293,16.29,1111122 
DISL,ioos:station:DISL:BSCA:1,2012-02-03T12:00:00Z,30.3288,-87.8293,16.19,1111122 
DISL,ioos:station:DISL:BSCA:1,2012-02-03T12:30:00Z,30.3288,-87.8293,16.46,1111122 
DISL,ioos:station:DISL:BSCA:1,2012-02-03T13:00:00Z,30.3288,-87.8293,16.93,1111122 
DISL,ioos:station:DISL:BSCA:1,2012-02-03T13:30:00Z,30.3288,-87.8293,17.24,1111122 
DISL,ioos:station:DISL:BSCA:1,2012-02-03T14:00:00Z,30.3288,-87.8293,17.46,1111122 
DISL,ioos:station:DISL:BSCA:1,2012-02-03T14:30:00Z,30.3288,-87.8293,17.97,1111122 
DISL,ioos:station:DISL:BSCA:1,2012-02-03T15:00:00Z,30.3288,-87.8293,18.37,1111122 
DISL,ioos:station:DISL:BSCA:1,2012-02-03T15:30:00Z,30.3288,-87.8293,18.41,1111122 
DISL,ioos:station:DISL:BSCA:1,2012-02-03T16:00:00Z,30.3288,-87.8293,18.44,1111122 
DISL,ioos:station:DISL:BSCA:1,2012-02-03T16:30:00Z,30.3288,-87.8293,18.68,1111122 
DISL,ioos:station:DISL:BSCA:1,2012-02-03T17:00:00Z,30.3288,-87.8293,18.85,1111122 
DISL,ioos:station:DISL:BSCA:1,2012-02-03T17:30:00Z,30.3288,-87.8293,18.85,1111122 
DISL,ioos:station:DISL:BSCA:1,2012-02-03T18:00:00Z,30.3288,-87.8293,19.08,1111122 
DISL,ioos:station:DISL:BSCA:1,2012-02-03T18:30:00Z,30.3288,-87.8293,19.08,1111122 
DISL,ioos:station:DISL:BSCA:1,2012-02-03T19:00:00Z,30.3288,-87.8293,19.35,1111122 
DISL,ioos:station:DISL:BSCA:1,2012-02-03T19:30:00Z,30.3288,-87.8293,19.48,1111122 
DISL,ioos:station:DISL:BSCA:1,2012-02-03T20:00:00Z,30.3288,-87.8293,19.34,1111122 
DISL,ioos:station:DISL:BSCA:1,2012-02-03T20:30:00Z,30.3288,-87.8293,19.38,1111122 
DISL,ioos:station:DISL:BSCA:1,2012-02-03T21:00:00Z,30.3288,-87.8293,19.34,1111122 
DISL,ioos:station:DISL:BSCA:1,2012-02-03T21:30:00Z,30.3288,-87.8293,19.38,1111122 
DISL,ioos:station:DISL:BSCA:1,2012-02-03T22:00:00Z,30.3288,-87.8293,19.35,1111122 
DISL,ioos:station:DISL:BSCA:1,2012-02-03T22:30:00Z,30.3288,-87.8293,19.21,1111122 
DISL,ioos:station:DISL:BSCA:1,2012-02-03T23:00:00Z,30.3288,-87.8293,19.15,1111122 
DISL,ioos:station:DISL:BSCA:1,2012-02-03T23:30:00Z,30.3288,-87.8293,19.08,1111122 
DISL,ioos:station:DISL:BSCA:1,2012-02-04T00:00:00Z,30.3288,-87.8293,18.81,1111122 
DISL,ioos:station:DISL:BSCA:1,2012-02-04T00:30:00Z,30.3288,-87.8293,18.71,1111122 
DISL,ioos:station:DISL:BSCA:1,2012-02-04T01:00:00Z,30.3288,-87.8293,18.51,1111122 
DISL,ioos:station:DISL:BSCA:1,2012-02-04T01:30:00Z,30.3288,-87.8293,18.78,1111122 
DISL,ioos:station:DISL:BSCA:1,2012-02-04T02:00:00Z,30.3288,-87.8293,18.68,1111122 
DISL,ioos:station:DISL:BSCA:1,2012-02-04T02:30:00Z,30.3288,-87.8293,18.81,1111122 
DISL,ioos:station:DISL:BSCA:1,2012-02-04T03:00:00Z,30.3288,-87.8293,18.75,1111122 
DISL,ioos:station:DISL:BSCA:1,2012-02-04T03:30:00Z,30.3288,-87.8293,19.02,1111122 
DISL,ioos:station:DISL:BSCA:1,2012-02-04T04:00:00Z,30.3288,-87.8293,18.88,1111122 
DISL,ioos:station:DISL:BSCA:1,2012-02-04T04:30:00Z,30.3288,-87.8293,18.81,1111122 
DISL,ioos:station:DISL:BSCA:1,2012-02-04T05:00:00Z,30.3288,-87.8293,18.71,1111122 
DISL,ioos:station:DISL:BSCA:1,2012-02-04T05:30:00Z,30.3288,-87.8293,18.78,1111122 
DISL,ioos:station:DISL:BSCA:1,2012-02-04T06:00:00Z,30.3288,-87.8293,18.75,1111122 
DISL,ioos:station:DISL:BSCA:1,2012-02-04T06:30:00Z,30.3288,-87.8293,18.54,1111122 
DISL,ioos:station:DISL:BSCA:1,2012-02-04T07:00:00Z,30.3288,-87.8293,18.41,1111122 
DISL,ioos:station:DISL:BSCA:1,2012-02-04T07:30:00Z,30.3288,-87.8293,18.47,1111122 
DISL,ioos:station:DISL:BSCA:1,2012-02-04T08:00:00Z,30.3288,-87.8293,18.68,1111122 
DISL,ioos:station:DISL:BSCA:1,2012-02-04T08:30:00Z,30.3288,-87.8293,18.17,1111122 
DISL,ioos:station:DISL:BSCA:1,2012-02-04T09:00:00Z,30.3288,-87.8293,18.14,1111122 
DISL,ioos:station:DISL:BSCA:1,2012-02-04T09:30:00Z,30.3288,-87.8293,18.31,1111122 
DISL,ioos:station:DISL:BSCA:1,2012-02-04T10:00:00Z,30.3288,-87.8293,18.47,1111122 
DISL,ioos:station:DISL:BSCA:1,2012-02-04T10:30:00Z,30.3288,-87.8293,18.58,1111122 
DISL,ioos:station:DISL:BSCA:1,2012-02-04T11:00:00Z,30.3288,-87.8293,18.78,1111122 
DISL,ioos:station:DISL:BSCA:1,2012-02-04T11:30:00Z,30.3288,-87.8293,18.75,1111122 
DISL,ioos:station:DISL:BSCA:1,2012-02-04T12:00:00Z,30.3288,-87.8293,18.68,1111122 
DISL,ioos:station:DISL:BSCA:1,2012-02-04T12:30:00Z,30.3288,-87.8293,18.54,1111122 
DISL,ioos:station:DISL:BSCA:1,2012-02-04T13:00:00Z,30.3288,-87.8293,18.41,1111122 
DISL,ioos:station:DISL:BSCA:1,2012-02-04T13:30:00Z,30.3288,-87.8293,18.92,1111122 
DISL,ioos:station:DISL:BSCA:1,2012-02-04T14:00:00Z,30.3288,-87.8293,18.92,1111122 
DISL,ioos:station:DISL:BSCA:1,2012-02-04T14:30:00Z,30.3288,-87.8293,19.22,1111122 
DISL,ioos:station:DISL:BSCA:1,2012-02-04T15:00:00Z,30.3288,-87.8293,19.42,1111122 
DISL,ioos:station:DISL:BSCA:1,2012-02-04T15:30:00Z,30.3288,-87.8293,19.52,1111122 
DISL,ioos:station:DISL:BSCA:1,2012-02-04T16:00:00Z,30.3288,-87.8293,19.71,1111122 
DISL,ioos:station:DISL:BSCA:1,2012-02-04T16:30:00Z,30.3288,-87.8293,19.71,1111122 
DISL,ioos:station:DISL:BSCA:1,2012-02-04T17:00:00Z,30.3288,-87.8293,19.74,1111122 
DISL,ioos:station:DISL:BSCA:1,2012-02-04T17:30:00Z,30.3288,-87.8293,19.74,1111122 
DISL,ioos:station:DISL:BSCA:1,2012-02-04T18:00:00Z,30.3288,-87.8293,19.84,1111122 
DISL,ioos:station:DISL:BSCA:1,2012-02-04T18:30:00Z,30.3288,-87.8293,19.51,1111122 
DISL,ioos:station:DISL:BSCA:1,2012-02-04T19:00:00Z,30.3288,-87.8293,19.74,1111122 
DISL,ioos:station:DISL:BSCA:1,2012-02-04T19:30:00Z,30.3288,-87.8293,19.67,1111122 
DISL,ioos:station:DISL:BSCA:1,2012-02-04T20:00:00Z,30.3288,-87.8293,19.91,1111122 
DISL,ioos:station:DISL:BSCA:1,2012-02-04T20:30:00Z,30.3288,-87.8293,19.74,1111122 
DISL,ioos:station:DISL:BSCA:1,2012-02-04T21:00:00Z,30.3288,-87.8293,19.54,1111122 
DISL,ioos:station:DISL:BSCA:1,2012-02-04T21:30:00Z,30.3288,-87.8293,19.44,1111122 
DISL,ioos:station:DISL:BSCA:1,2012-02-04T22:00:00Z,30.3288,-87.8293,19.23,1111122 
DISL,ioos:station:DISL:BSCA:1,2012-02-04T22:30:00Z,30.3288,-87.8293,19.03,1111122 
DISL,ioos:station:DISL:BSCA:1,2012-02-04T23:00:00Z,30.3288,-87.8293,19.01,1111122 
DISL,ioos:station:DISL:BSCA:1,2012-02-04T23:30:00Z,30.3288,-87.8293,18.71,1111122 
DISL,ioos:station:DISL:BSCA:1,2012-02-05T00:00:00Z,30.3288,-87.8293,18.68,1111122 
DISL,ioos:station:DISL:BSCA:1,2012-02-05T00:30:00Z,30.3288,-87.8293,18.68,1111122 
DISL,ioos:station:DISL:BSCA:1,2012-02-05T01:00:00Z,30.3288,-87.8293,18.51,1111122 
DISL,ioos:station:DISL:BSCA:1,2012-02-05T01:30:00Z,30.3288,-87.8293,18.47,1111122 
DISL,ioos:station:DISL:BSCA:1,2012-02-05T02:00:00Z,30.3288,-87.8293,18.54,1111122 
DISL,ioos:station:DISL:BSCA:1,2012-02-05T02:30:00Z,30.3288,-87.8293,18.68,1111122 
DISL,ioos:station:DISL:BSCA:1,2012-02-05T03:00:00Z,30.3288,-87.8293,18.54,1111122 
DISL,ioos:station:DISL:BSCA:1,2012-02-05T03:30:00Z,30.3288,-87.8293,18.54,1111122 
DISL,ioos:station:DISL:BSCA:1,2012-02-05T04:00:00Z,30.3288,-87.8293,18.75,1111122 
DISL,ioos:station:DISL:BSCA:1,2012-02-05T04:30:00Z,30.3288,-87.8293,18.54,1111122 
DISL,ioos:station:DISL:BSCA:1,2012-02-05T05:00:00Z,30.3288,-87.8293,18.54,1111122 
DISL,ioos:station:DISL:BSCA:1,2012-02-05T05:30:00Z,30.3288,-87.8293,18.68,1111122 
DISL,ioos:station:DISL:BSCA:1,2012-02-05T06:00:00Z,30.3288,-87.8293,18.68,1111122 
DISL,ioos:station:DISL:BSCA:1,2012-02-05T06:30:00Z,30.3288,-87.8293,18.51,1111122 
DISL,ioos:station:DISL:BSCA:1,2012-02-05T07:00:00Z,30.3288,-87.8293,18.47,1111122 
DISL,ioos:station:DISL:BSCA:1,2012-02-05T07:30:00Z,30.3288,-87.8293,18.41,1111122 
DISL,ioos:station:DISL:BSCA:1,2012-02-05T08:00:00Z,30.3288,-87.8293,18.41,1111122 
DISL,ioos:station:DISL:BSCA:1,2012-02-05T08:30:00Z,30.3288,-87.8293,18.31,1111122 
DISL,ioos:station:DISL:BSCA:1,2012-02-05T09:00:00Z,30.3288,-87.8293,18.61,1111122 
DISL,ioos:station:DISL:BSCA:1,2012-02-05T09:30:00Z,30.3288,-87.8293,18.78,1111122 
DISL,ioos:station:DISL:BSCA:1,2012-02-05T10:00:00Z,30.3288,-87.8293,18.71,1111122 
DISL,ioos:station:DISL:BSCA:1,2012-02-05T10:30:00Z,30.3288,-87.8293,18.44,1111122 
DISL,ioos:station:DISL:BSCA:1,2012-02-05T11:00:00Z,30.3288,-87.8293,18.34,1111122 
DISL,ioos:station:DISL:BSCA:1,2012-02-05T11:30:00Z,30.3288,-87.8293,17.9,1111122 
DISL,ioos:station:DISL:BSCA:1,2012-02-05T12:00:00Z,30.3288,-87.8293,17.49,1111122 
DISL,ioos:station:DISL:BSCA:1,2012-02-05T12:30:00Z,30.3288,-87.8293,17.53,1111122 
DISL,ioos:station:DISL:BSCA:1,2012-02-05T13:00:00Z,30.3288,-87.8293,17.05,1111122 
DISL,ioos:station:DISL:BSCA:1,2012-02-05T13:30:00Z,30.3288,-87.8293,16.88,1111122 
DISL,ioos:station:DISL:BSCA:1,2012-02-05T14:00:00Z,30.3288,-87.8293,17.02,1111122 
DISL,ioos:station:DISL:BSCA:1,2012-02-05T14:30:00Z,30.3288,-87.8293,17.25,1111122 
DISL,ioos:station:DISL:BSCA:1,2012-02-05T15:00:00Z,30.3288,-87.8293,17.05,1111122 
DISL,ioos:station:DISL:BSCA:1,2012-02-05T15:30:00Z,30.3288,-87.8293,17.36,1111122 
DISL,ioos:station:DISL:BSCA:1,2012-02-05T16:00:00Z,30.3288,-87.8293,17.32,1111122 
DISL,ioos:station:DISL:BSCA:1,2012-02-05T16:30:00Z,30.3288,-87.8293,17.53,1111122 
DISL,ioos:station:DISL:BSCA:1,2012-02-05T17:00:00Z,30.3288,-87.8293,17.8,1111122 
DISL,ioos:station:DISL:BSCA:1,2012-02-05T17:30:00Z,30.3288,-87.8293,18.1,1111122 
DISL,ioos:station:DISL:BSCA:1,2012-02-05T18:00:00Z,30.3288,-87.8293,18.35,1111122 
DISL,ioos:station:DISL:BSCA:1,2012-02-05T18:30:00Z,30.3288,-87.8293,18.96,1111122 
DISL,ioos:station:DISL:BSCA:1,2012-02-05T19:00:00Z,30.3288,-87.8293,18.69,1111122 
DISL,ioos:station:DISL:BSCA:1,2012-02-05T19:30:00Z,30.3288,-87.8293,18.73,1111122 
DISL,ioos:station:DISL:BSCA:1,2012-02-05T20:00:00Z,30.3288,-87.8293,18.59,1111122 
DISL,ioos:station:DISL:BSCA:1,2012-02-05T20:30:00Z,30.3288,-87.8293,18.69,1111122 
DISL,ioos:station:DISL:BSCA:1,2012-02-05T21:00:00Z,30.3288,-87.8293,19.27,1111122 
DISL,ioos:station:DISL:BSCA:1,2012-02-05T21:30:00Z,30.3288,-87.8293,19.37,1111122 
DISL,ioos:station:DISL:BSCA:1,2012-02-05T22:00:00Z,30.3288,-87.8293,19.37,1111122 
DISL,ioos:station:DISL:BSCA:1,2012-02-05T22:30:00Z,30.3288,-87.8293,19.1,1111122 
DISL,ioos:station:DISL:BSCA:1,2012-02-05T23:00:00Z,30.3288,-87.8293,18.86,1111122 
DISL,ioos:station:DISL:BSCA:1,2012-02-05T23:30:00Z,30.3288,-87.8293,18.43,1111122 
DISL,ioos:station:DISL:BSCA:1,2012-02-06T00:00:00Z,30.3288,-87.8293,18.07,1111122 
DISL,ioos:station:DISL:BSCA:1,2012-02-06T00:30:00Z,30.3288,-87.8293,17.73,1111122 
DISL,ioos:station:DISL:BSCA:1,2012-02-06T01:00:00Z,30.3288,-87.8293,17.49,1111122 
DISL,ioos:station:DISL:BSCA:1,2012-02-06T01:30:00Z,30.3288,-87.8293,17.19,1111122 
DISL,ioos:station:DISL:BSCA:1,2012-02-06T02:00:00Z,30.3288,-87.8293,17.25,1111122 
DISL,ioos:station:DISL:BSCA:1,2012-02-06T02:30:00Z,30.3288,-87.8293,16.58,1111122 
DISL,ioos:station:DISL:BSCA:1,2012-02-06T03:00:00Z,30.3288,-87.8293,16.31,1111122 
DISL,ioos:station:DISL:BSCA:1,2012-02-06T03:30:00Z,30.3288,-87.8293,15.88,1111122 
DISL,ioos:station:DISL:BSCA:1,2012-02-06T04:00:00Z,30.3288,-87.8293,14.87,1111122 
DISL,ioos:station:DISL:BSCA:1,2012-02-06T04:30:00Z,30.3288,-87.8293,14.05,1111122 
DISL,ioos:station:DISL:BSCA:1,2012-02-06T05:00:00Z,30.3288,-87.8293,13.65,1111122 
DISL,ioos:station:DISL:BSCA:1,2012-02-06T05:30:00Z,30.3288,-87.8293,13.2,1111122 
DISL,ioos:station:DISL:BSCA:1,2012-02-06T06:00:00Z,30.3288,-87.8293,13.1,1111122 
DISL,ioos:station:DISL:BSCA:1,2012-02-06T06:30:00Z,30.3288,-87.8293,12.94,1111122 
DISL,ioos:station:DISL:BSCA:1,2012-02-06T07:00:00Z,30.3288,-87.8293,12.44,1111122 
DISL,ioos:station:DISL:BSCA:1,2012-02-06T07:30:00Z,30.3288,-87.8293,12.27,1111122 
DISL,ioos:station:DISL:BSCA:1,2012-02-06T08:00:00Z,30.3288,-87.8293,11.76,1111122 
DISL,ioos:station:DISL:BSCA:1,2012-02-06T08:30:00Z,30.3288,-87.8293,11.42,1111122 
DISL,ioos:station:DISL:BSCA:1,2012-02-06T09:00:00Z,30.3288,-87.8293,11.12,1111122 
DISL,ioos:station:DISL:BSCA:1,2012-02-06T09:30:00Z,30.3288,-87.8293,10.88,1111122 
DISL,ioos:station:DISL:BSCA:1,2012-02-06T10:00:00Z,30.3288,-87.8293,10.81,1111122 
DISL,ioos:station:DISL:BSCA:1,2012-02-06T10:30:00Z,30.3288,-87.8293,10.68,1111122 
DISL,ioos:station:DISL:BSCA:1,2012-02-06T11:00:00Z,30.3288,-87.8293,10.51,1111122 
DISL,ioos:station:DISL:BSCA:1,2012-02-06T11:30:00Z,30.3288,-87.8293,10.34,1111122 
DISL,ioos:station:DISL:BSCA:1,2012-02-06T12:00:00Z,30.3288,-87.8293,10.34,1111122 
DISL,ioos:station:DISL:BSCA:1,2012-02-06T12:30:00Z,30.3288,-87.8293,10.27,1111122 
DISL,ioos:station:DISL:BSCA:1,2012-02-06T13:00:00Z,30.3288,-87.8293,10.27,1111122 
DISL,ioos:station:DISL:BSCA:1,2012-02-06T13:30:00Z,30.3288,-87.8293,10.1,1111122 
DISL,ioos:station:DISL:BSCA:1,2012-02-06T14:00:00Z,30.3288,-87.8293,10.47,1111122 
DISL,ioos:station:DISL:BSCA:1,2012-02-06T14:30:00Z,30.3288,-87.8293,10.81,1111122 
DISL,ioos:station:DISL:BSCA:1,2012-02-06T15:00:00Z,30.3288,-87.8293,11.49,1111122 
DISL,ioos:station:DISL:BSCA:1,2012-02-06T15:30:00Z,30.3288,-87.8293,11.63,1111122 
DISL,ioos:station:DISL:BSCA:1,2012-02-06T16:00:00Z,30.3288,-87.8293,11.63,1111122 
DISL,ioos:station:DISL:BSCA:1,2012-02-06T16:30:00Z,30.3288,-87.8293,12.0,1111122 
DISL,ioos:station:DISL:BSCA:1,2012-02-06T17:00:00Z,30.3288,-87.8293,12.37,1111122 
DISL,ioos:station:DISL:BSCA:1,2012-02-06T17:30:00Z,30.3288,-87.8293,12.78,1111122 
DISL,ioos:station:DISL:BSCA:1,2012-02-06T18:00:00Z,30.3288,-87.8293,13.21,1111122 
DISL,ioos:station:DISL:BSCA:1,2012-02-06T18:30:00Z,30.3288,-87.8293,14.09,1111122 
DISL,ioos:station:DISL:BSCA:1,2012-02-06T19:00:00Z,30.3288,-87.8293,14.12,1111122 
DISL,ioos:station:DISL:BSCA:1,2012-02-06T19:30:00Z,30.3288,-87.8293,14.7,1111122 
DISL,ioos:station:DISL:BSCA:1,2012-02-06T20:00:00Z,30.3288,-87.8293,15.31,1111122 
DISL,ioos:station:DISL:BSCA:1,2012-02-06T20:30:00Z,30.3288,-87.8293,15.56,1111122 
DISL,ioos:station:DISL:BSCA:1,2012-02-06T21:00:00Z,30.3288,-87.8293,15.67,1111122 
DISL,ioos:station:DISL:BSCA:1,2012-02-06T21:30:00Z,30.3288,-87.8293,15.84,1111122 
DISL,ioos:station:DISL:BSCA:1,2012-02-06T22:00:00Z,30.3288,-87.8293,15.54,1111122 
DISL,ioos:station:DISL:BSCA:1,2012-02-06T22:30:00Z,30.3288,-87.8293,15.78,1111122 
DISL,ioos:station:DISL:BSCA:1,2012-02-06T23:00:00Z,30.3288,-87.8293,15.85,1111122 
DISL,ioos:station:DISL:BSCA:1,2012-02-06T23:30:00Z,30.3288,-87.8293,15.98,1111122 